Location: Newark
(36.1358°N, 115.1208°W)
Time: 00:51:00
(UTC+00:00)

Vanguard 1 Rocket - Pass Details

Date: 19 February 2020
Orbit: 650 x 4226 km, 34.3° (Epoch: 01 April)

Event Time Altitude Azimuth Distance (km) Brightness Sun altitude
Rises 11:14:08 0° 249° (WSW) 4,283 - -38.7°
Reaches altitude 10° 11:17:39 10° 246° (WSW) 2,886 - -38.1°
Maximum altitude 11:23:47 57° 169° (SSE) 888 - -36.9°
Exits shadow 11:26:44 21° 96° (E) 1,518 9.0 -36.3°
Drops below altitude 10° 11:28:09 10° 90° (E) 2,067 10.0 -36.0°
Sets 11:30:18 0° 86° (E) 2,955 11.0 -35.6°
